THY5KB LTCM-LTFM

Flight info

Callsign THY5KB
Flight time N/A
Altitude 36000
Route SUNUM W90 INB UL746 ADUMU UT310 NUGBA
Aircraft A319/M-SDE3FGHIRWY/LB1

Departure

Time 2026-04-25 11:15
Airport Sinop Airport (LTCM)

Arrival

Time N/A
Airport İstanbul Airport (LTFM)
Time Latitude Longitude Altitude Speed Heading
2026-04-25 10:55 42.01938 35.07890 37 ft 0 kts 142°
2026-04-25 11:08 42.01949 35.07879 39 ft 2 kts 145°
2026-04-25 11:08 42.01963 35.07866 39 ft 2 kts 151°
2026-04-25 11:09 42.01978 35.07857 39 ft 2 kts 197°
2026-04-25 11:09 42.01990 35.07867 38 ft 1 kts 231°
2026-04-25 11:09 42.01991 35.07869 39 ft 0 kts 232°
2026-04-25 11:11 42.01981 35.07847 37 ft 5 kts 246°
2026-04-25 11:11 42.02000 35.07795 39 ft 8 kts 320°
2026-04-25 11:11 42.02053 35.07743 39 ft 11 kts 324°
2026-04-25 11:11 42.02093 35.07662 40 ft 12 kts 255°
2026-04-25 11:12 42.02042 35.07557 39 ft 15 kts 233°
2026-04-25 11:12 42.01969 35.07423 39 ft 21 kts 234°
2026-04-25 11:12 42.01868 35.07240 38 ft 26 kts 234°
2026-04-25 11:12 42.01759 35.07038 39 ft 27 kts 234°
2026-04-25 11:13 42.01644 35.06830 39 ft 28 kts 234°
2026-04-25 11:13 42.01522 35.06613 40 ft 30 kts 232°
2026-04-25 11:13 42.01405 35.06396 40 ft 19 kts 235°
2026-04-25 11:13 42.01383 35.06260 40 ft 9 kts 251°
2026-04-25 11:14 42.01345 35.06284 40 ft 9 kts 86°
2026-04-25 11:14 42.01357 35.06310 40 ft 4 kts 52°
2026-04-25 11:14 42.01526 35.06617 42 ft 77 kts 54°
2026-04-25 11:14 42.01983 35.07450 41 ft 143 kts 53°
2026-04-25 11:15 42.02632 35.08610 506 ft 157 kts 55°
2026-04-25 11:15 42.03286 35.09770 1255 ft 154 kts 55°
2026-04-25 11:15 42.03933 35.10950 1778 ft 163 kts 56°
2026-04-25 11:15 42.04648 35.12293 1930 ft 192 kts 57°
2026-04-25 11:16 42.06315 35.15408 2855 ft 219 kts 55°
2026-04-25 11:16 42.07244 35.17116 3311 ft 232 kts 58°
2026-04-25 11:16 42.07874 35.19120 3917 ft 236 kts 82°
2026-04-25 11:17 42.07760 35.21330 4433 ft 244 kts 110°
2026-04-25 11:17 42.06718 35.23188 4742 ft 260 kts 148°
2026-04-25 11:17 42.04985 35.23837 5298 ft 265 kts 184°
2026-04-25 11:17 42.03270 35.22988 5916 ft 268 kts 219°
2026-04-25 11:18 42.02222 35.20952 6531 ft 270 kts 253°
2026-04-25 11:18 42.02115 35.18437 7154 ft 273 kts 273°
2026-04-25 11:18 42.02225 35.15871 7833 ft 276 kts 272°
2026-04-25 11:18 42.02302 35.13286 8484 ft 278 kts 271°
2026-04-25 11:19 42.02328 35.10690 9080 ft 279 kts 269°
2026-04-25 11:19 42.02303 35.08080 9655 ft 280 kts 268°
2026-04-25 11:19 42.02231 35.05456 10162 ft 284 kts 266°
2026-04-25 11:19 42.02108 35.02726 10280 ft 300 kts 266°
2026-04-25 11:20 42.01957 34.99878 10426 ft 310 kts 265°
2026-04-25 11:20 42.01794 34.96955 10700 ft 316 kts 266°
2026-04-25 11:20 42.01632 34.93999 11045 ft 318 kts 266°
2026-04-25 11:20 42.01471 34.91026 11423 ft 319 kts 266°
2026-04-25 11:21 42.01313 34.88038 11793 ft 321 kts 266°
2026-04-25 11:21 42.01157 34.85039 12145 ft 322 kts 267°
2026-04-25 11:21 42.01011 34.82033 12481 ft 323 kts 267°
2026-04-25 11:21 42.00867 34.79016 12803 ft 324 kts 267°
2026-04-25 11:22 42.00726 34.76037 13099 ft 325 kts 267°
2026-04-25 11:22 42.00628 34.73983 13296 ft 326 kts 267°
2026-04-25 11:22 42.00433 34.69942 13666 ft 328 kts 267°
2026-04-25 11:22 42.00285 34.66879 13935 ft 329 kts 267°
2026-04-25 11:23 42.00134 34.63799 14209 ft 330 kts 267°
2026-04-25 11:23 41.99978 34.60719 14466 ft 331 kts 267°
2026-04-25 11:23 41.99822 34.57626 14686 ft 333 kts 266°
2026-04-25 11:23 41.99666 34.54510 14907 ft 335 kts 266°
2026-04-25 11:24 41.99510 34.51383 15127 ft 336 kts 266°
2026-04-25 11:24 41.99352 34.48245 15363 ft 337 kts 266°
2026-04-25 11:24 41.99192 34.45103 15585 ft 338 kts 266°
2026-04-25 11:24 41.99031 34.41947 15802 ft 339 kts 266°
2026-04-25 11:25 41.98869 34.38780 16011 ft 340 kts 266°
2026-04-25 11:25 41.98474 34.31196 16509 ft 341 kts 266°
2026-04-25 11:25 41.97802 34.18379 17254 ft 345 kts 266°
2026-04-25 11:25 41.97145 34.06329 17889 ft 348 kts 266°
2026-04-25 11:26 41.96933 34.02466 18078 ft 349 kts 266°
2026-04-25 11:26 41.96755 33.99212 18258 ft 350 kts 266°
2026-04-25 11:26 41.96575 33.95953 18424 ft 350 kts 266°
2026-04-25 11:26 41.96396 33.92681 18582 ft 350 kts 266°
2026-04-25 11:27 41.96215 33.89410 18724 ft 352 kts 266°
2026-04-25 11:27 41.96030 33.86136 18857 ft 352 kts 266°
2026-04-25 11:27 41.95844 33.82850 18994 ft 353 kts 266°
2026-04-25 11:27 41.95727 33.80687 19270 ft 347 kts 266°
2026-04-25 11:28 41.95531 33.76452 19829 ft 339 kts 266°
2026-04-25 11:28 41.95371 33.73269 19954 ft 342 kts 269°
2026-04-25 11:28 41.95447 33.70070 20077 ft 344 kts 276°
2026-04-25 11:28 41.95866 33.66891 20202 ft 346 kts 284°
2026-04-25 11:29 41.96473 33.63753 20328 ft 348 kts 284°
2026-04-25 11:29 41.97085 33.60594 20451 ft 350 kts 284°
2026-04-25 11:29 41.97699 33.57424 20581 ft 351 kts 284°
2026-04-25 11:29 41.98314 33.54237 20703 ft 352 kts 284°
2026-04-25 11:30 41.98925 33.51040 20828 ft 354 kts 284°
2026-04-25 11:30 41.99536 33.47835 20949 ft 356 kts 284°
2026-04-25 11:30 42.00155 33.44615 21068 ft 356 kts 284°
2026-04-25 11:30 42.00775 33.41391 21196 ft 356 kts 284°
2026-04-25 11:31 42.01387 33.38206 21317 ft 356 kts 284°
2026-04-25 11:31 42.02012 33.34944 21443 ft 356 kts 284°
2026-04-25 11:31 42.02616 33.31764 21562 ft 356 kts 284°
2026-04-25 11:31 42.03225 33.28539 21687 ft 355 kts 284°
2026-04-25 11:32 42.03831 33.25317 21813 ft 355 kts 284°
2026-04-25 11:32 42.04444 33.22061 21941 ft 355 kts 284°
2026-04-25 11:32 42.05043 33.18884 22064 ft 354 kts 284°
2026-04-25 11:32 42.05656 33.15631 22187 ft 354 kts 284°
2026-04-25 11:33 42.06240 33.12492 22627 ft 342 kts 283°
2026-04-25 11:33 42.06564 33.09481 23757 ft 308 kts 271°
2026-04-25 11:33 42.06521 33.06648 24316 ft 304 kts 267°
2026-04-25 11:33 42.06297 33.03798 24454 ft 309 kts 261°
2026-04-25 11:34 42.05836 33.00981 24567 ft 310 kts 259°
2026-04-25 11:34 42.05313 32.98137 24692 ft 315 kts 257°
2026-04-25 11:34 42.04773 32.95266 24814 ft 318 kts 256°
2026-04-25 11:34 42.04225 32.92366 24942 ft 320 kts 257°
2026-04-25 11:35 42.03657 32.89389 25043 ft 327 kts 256°
2026-04-25 11:35 42.03087 32.86454 25172 ft 330 kts 256°
2026-04-25 11:35 42.02502 32.83421 25304 ft 330 kts 256°
2026-04-25 11:35 42.01930 32.80431 25419 ft 331 kts 256°
2026-04-25 11:36 42.01352 32.77405 25557 ft 335 kts 256°
2026-04-25 11:36 42.00775 32.74411 25664 ft 334 kts 256°
2026-04-25 11:36 42.00191 32.71402 25801 ft 334 kts 256°
2026-04-25 11:36 41.99610 32.68371 25912 ft 335 kts 256°
2026-04-25 11:37 41.99027 32.65326 26031 ft 337 kts 256°
2026-04-25 11:37 41.98433 32.62203 26081 ft 342 kts 256°
2026-04-25 11:37 41.97847 32.59133 26075 ft 346 kts 256°
2026-04-25 11:37 41.97246 32.55978 26069 ft 350 kts 256°
2026-04-25 11:38 41.96635 32.52773 26073 ft 355 kts 256°
2026-04-25 11:38 41.96006 32.49570 26055 ft 357 kts 256°
2026-04-25 11:38 41.95364 32.46355 26079 ft 358 kts 256°
2026-04-25 11:38 41.94721 32.43139 26057 ft 357 kts 255°
2026-04-25 11:39 41.94085 32.39932 26070 ft 354 kts 255°
2026-04-25 11:39 41.93456 32.36748 26078 ft 356 kts 256°
2026-04-25 11:39 41.93033 32.34569 26079 ft 359 kts 257°
2026-04-25 11:39 41.92425 32.31363 26073 ft 357 kts 256°
2026-04-25 11:40 41.91807 32.28138 26074 ft 355 kts 256°
2026-04-25 11:40 41.91176 32.24959 26041 ft 353 kts 253°
2026-04-25 11:40 41.90536 32.21783 26023 ft 353 kts 256°
2026-04-25 11:40 41.89880 32.18577 26021 ft 352 kts 256°
2026-04-25 11:41 41.89238 32.15447 26027 ft 353 kts 255°
2026-04-25 11:41 41.88586 32.12273 26031 ft 353 kts 255°
2026-04-25 11:41 41.87937 32.09101 26036 ft 350 kts 255°
2026-04-25 11:41 41.87289 32.05940 26036 ft 351 kts 255°
2026-04-25 11:42 41.86639 32.02774 26035 ft 352 kts 255°
2026-04-25 11:42 41.85987 31.99602 26031 ft 353 kts 255°
2026-04-25 11:42 41.85346 31.96446 26034 ft 350 kts 256°
2026-04-25 11:42 41.84708 31.93302 26019 ft 350 kts 255°
2026-04-25 11:43 41.84059 31.90149 26023 ft 352 kts 255°
2026-04-25 11:43 41.83398 31.86984 26024 ft 352 kts 255°
2026-04-25 11:43 41.82735 31.83821 26020 ft 351 kts 255°
2026-04-25 11:43 41.82076 31.80670 26018 ft 352 kts 255°
2026-04-25 11:44 41.81419 31.77511 26024 ft 352 kts 255°
2026-04-25 11:44 41.80761 31.74339 26027 ft 353 kts 255°
2026-04-25 11:44 41.80099 31.71165 26023 ft 354 kts 255°
2026-04-25 11:44 41.79430 31.67987 26029 ft 354 kts 255°
2026-04-25 11:45 41.78759 31.64809 26028 ft 355 kts 255°
2026-04-25 11:45 41.78087 31.61628 26030 ft 355 kts 255°
2026-04-25 11:45 41.77418 31.58450 26028 ft 354 kts 255°
2026-04-25 11:45 41.76744 31.55278 26013 ft 351 kts 255°
2026-04-25 11:46 41.76095 31.52186 26011 ft 350 kts 255°
2026-04-25 11:46 41.75436 31.49039 26013 ft 352 kts 255°
2026-04-25 11:46 41.74774 31.45878 26017 ft 353 kts 255°
2026-04-25 11:46 41.74107 31.42708 26017 ft 354 kts 255°
2026-04-25 11:47 41.73432 31.39521 26012 ft 359 kts 254°
2026-04-25 11:47 41.72749 31.36312 26016 ft 356 kts 255°
2026-04-25 11:47 41.72061 31.33146 26019 ft 353 kts 254°